Satellite: HRBE Catalog number: 37855 Epoch time: 14359.17340514 Element set: 16 Inclination: 101.7097 deg RA of node: 121.8904 deg Eccentricity: 0.0205848 Arg of perigee: 221.2053 deg Mean anomaly: 137.3457 deg Mean motion: 14.93545111 rev/day Decay rate: 2.1637e-04 rev/day^2 Epoch rev: 17114 Checksum: 278
Satellite: RS-39 Catalog number: 38051 Epoch time: 14288.65876392 Element set: 41 Inclination: 051.5964 deg RA of node: 324.1908 deg Eccentricity: 0.0006422 Arg of perigee: 269.6897 deg Mean anomaly: 186.8903 deg Mean motion: 16.43533377 rev/day Decay rate: 7.0201582e-01 rev/day^2 Epoch rev: 15308 Checksum: 345
Satellite: E-STAR Catalog number: 38079 Epoch time: 14360.57096042 Element set: 127 Inclination: 069.4261 deg RA of node: 186.8246 deg Eccentricity: 0.0133129 Arg of perigee: 069.0074 deg Mean anomaly: 292.5303 deg Mean motion: 15.78751665 rev/day Decay rate: 5.59083e-03 rev/day^2 Epoch rev: 15291 Checksum: 322
Satellite: GOLIAT Catalog number: 38085 Epoch time: 14360.45246652 Element set: 663 Inclination: 069.4300 deg RA of node: 201.2650 deg Eccentricity: 0.0194287 Arg of perigee: 074.9103 deg Mean anomaly: 358.0769 deg Mean motion: 15.58242198 rev/day Decay rate: 2.97502e-03 rev/day^2 Epoch rev: 15253 Checksum: 310
Satellite: HORYU-2 Catalog number: 38340 Epoch time: 14359.86870301 Element set: 55 Inclination: 098.2913 deg RA of node: 320.6734 deg Eccentricity: 0.0010796 Arg of perigee: 290.5057 deg Mean anomaly: 069.4991 deg Mean motion: 14.73476132 rev/day Decay rate: 3.527e-05 rev/day^2 Epoch rev: 14000 Checksum: 300
Satellite: RS-40 Catalog number: 38735 Epoch time: 14360.48165371 Element set: 893 Inclination: 082.4745 deg RA of node: 167.6538 deg Eccentricity: 0.0016928 Arg of perigee: 195.7430 deg Mean anomaly: 164.3126 deg Mean motion: 12.42565784 rev/day Decay rate: 4.0e-07 rev/day^2 Epoch rev: 10946 Checksum: 322
Satellite: PROITERES Catalog number: 38756 Epoch time: 14360.42442613 Element set: 533 Inclination: 098.2242 deg RA of node: 091.8667 deg Eccentricity: 0.0013107 Arg of perigee: 127.1630 deg Mean anomaly: 233.0778 deg Mean motion: 14.75429778 rev/day Decay rate: 2.194e-05 rev/day^2 Epoch rev: 12352 Checksum: 297
Satellite: BEESAT-3 Catalog number: 39134 Epoch time: 14359.09848152 Element set: 803 Inclination: 064.8737 deg RA of node: 253.1022 deg Eccentricity: 0.0035525 Arg of perigee: 275.9296 deg Mean anomaly: 083.7777 deg Mean motion: 15.08753270 rev/day Decay rate: 1.4823e-04 rev/day^2 Epoch rev: 9240 Checksum: 321
Satellite: BEESAT-2 Catalog number: 39136 Epoch time: 14359.85811276 Element set: 781 Inclination: 064.8740 deg RA of node: 251.9022 deg Eccentricity: 0.0035887 Arg of perigee: 275.8989 deg Mean anomaly: 083.8042 deg Mean motion: 15.07683217 rev/day Decay rate: 1.0449e-04 rev/day^2 Epoch rev: 9250 Checksum: 336
Satellite: LO-75 Catalog number: 39382 Epoch time: 14295.69194059 Element set: 487 Inclination: 040.4713 deg RA of node: 030.2705 deg Eccentricity: 0.0002289 Arg of perigee: 341.7175 deg Mean anomaly: 018.4586 deg Mean motion: 16.19795749 rev/day Decay rate: 7.301741e-02 rev/day^2 Epoch rev: 47082 Checksum: 345
Satellite: ZACUBE-1 Catalog number: 39417 Epoch time: 14360.24827710 Element set: 498 Inclination: 097.7536 deg RA of node: 064.1300 deg Eccentricity: 0.0060648 Arg of perigee: 340.7654 deg Mean anomaly: 019.1268 deg Mean motion: 14.78969078 rev/day Decay rate: 3.526e-05 rev/day^2 Epoch rev: 5906 Checksum: 326
Satellite: TRITON-1 Catalog number: 39427 Epoch time: 14359.82112521 Element set: 349 Inclination: 097.7408 deg RA of node: 055.6031 deg Eccentricity: 0.0116683 Arg of perigee: 001.0088 deg Mean anomaly: 359.1330 deg Mean motion: 14.66065565 rev/day Decay rate: 2.099e-05 rev/day^2 Epoch rev: 5846 Checksum: 303
Satellite: DELFIN3XT Catalog number: 39428 Epoch time: 14360.13318399 Element set: 354 Inclination: 097.7402 deg RA of node: 054.5721 deg Eccentricity: 0.0126180 Arg of perigee: 003.5832 deg Mean anomaly: 356.6246 deg Mean motion: 14.64411155 rev/day Decay rate: 4.103e-05 rev/day^2 Epoch rev: 5840 Checksum: 281
Satellite: GOMX-1 Catalog number: 39430 Epoch time: 14360.38092443 Element set: 108 Inclination: 097.7359 deg RA of node: 050.8026 deg Eccentricity: 0.0155631 Arg of perigee: 014.2619 deg Mean anomaly: 346.2903 deg Mean motion: 14.57491800 rev/day Decay rate: 2.942e-05 rev/day^2 Epoch rev: 5820 Checksum: 288
Satellite: MO-76 Catalog number: 39436 Epoch time: 14359.94312335 Element set: 446 Inclination: 097.7600 deg RA of node: 071.1661 deg Eccentricity: 0.0022244 Arg of perigee: 333.3446 deg Mean anomaly: 026.6631 deg Mean motion: 14.97562433 rev/day Decay rate: 3.2641e-04 rev/day^2 Epoch rev: 5948 Checksum: 313
Satellite: LO-74 Catalog number: 39440 Epoch time: 14359.85175271 Element set: 345 Inclination: 097.7491 deg RA of node: 060.5326 deg Eccentricity: 0.0082544 Arg of perigee: 348.5549 deg Mean anomaly: 011.3781 deg Mean motion: 14.73842482 rev/day Decay rate: 2.494e-05 rev/day^2 Epoch rev: 5879 Checksum: 342
Satellite: PUCPSAT-1 Catalog number: 39442 Epoch time: 14359.73119946 Element set: 346 Inclination: 097.7601 deg RA of node: 068.6873 deg Eccentricity: 0.0033131 Arg of perigee: 337.5247 deg Mean anomaly: 022.4516 deg Mean motion: 14.87405324 rev/day Decay rate: 5.224e-05 rev/day^2 Epoch rev: 5807 Checksum: 308
Satellite: SHINAISAT Catalog number: 39572 Epoch time: 14328.13084988 Element set: 447 Inclination: 064.9728 deg RA of node: 197.0096 deg Eccentricity: 0.0013534 Arg of perigee: 259.7861 deg Mean anomaly: 100.1802 deg Mean motion: 16.45181032 rev/day Decay rate: 2.8848087e-01 rev/day^2 Epoch rev: 4240 Checksum: 324
Satellite: TEIKYOSAT Catalog number: 39576 Epoch time: 14297.85867254 Element set: 437 Inclination: 064.9818 deg RA of node: 300.5833 deg Eccentricity: 0.0008491 Arg of perigee: 317.3597 deg Mean anomaly: 044.3862 deg Mean motion: 16.45008906 rev/day Decay rate: 9.345816e-02 rev/day^2 Epoch rev: 3769 Checksum: 359
Satellite: CO-77 Catalog number: 39577 Epoch time: 14244.78324653 Element set: 379 Inclination: 064.9920 deg RA of node: 123.7668 deg Eccentricity: 0.0014904 Arg of perigee: 269.7208 deg Mean anomaly: 091.1897 deg Mean motion: 16.43552757 rev/day Decay rate: 1.0543803e-01 rev/day^2 Epoch rev: 2938 Checksum: 363
Satellite: SPROUT Catalog number: 39770 Epoch time: 14360.31544928 Element set: 234 Inclination: 097.8736 deg RA of node: 094.5971 deg Eccentricity: 0.0010847 Arg of perigee: 051.2754 deg Mean anomaly: 308.9415 deg Mean motion: 14.83252743 rev/day Decay rate: 3.226e-05 rev/day^2 Epoch rev: 3200 Checksum: 299
Satellite: POPSAT-HIP1 Catalog number: 40028 Epoch time: 14360.40368534 Element set: 582 Inclination: 097.9711 deg RA of node: 255.3977 deg Eccentricity: 0.0015562 Arg of perigee: 031.5069 deg Mean anomaly: 328.7050 deg Mean motion: 14.86083368 rev/day Decay rate: 5.696e-05 rev/day^2 Epoch rev: 2811 Checksum: 311
Satellite: EO-80 Catalog number: 40032 Epoch time: 14360.43387882 Element set: 565 Inclination: 097.9660 deg RA of node: 255.2654 deg Eccentricity: 0.0013210 Arg of perigee: 027.2797 deg Mean anomaly: 332.9071 deg Mean motion: 14.85821044 rev/day Decay rate: 5.586e-05 rev/day^2 Epoch rev: 2812 Checksum: 305
Satellite: VELOX-1 Catalog number: 40057 Epoch time: 14360.39928700 Element set: 573 Inclination: 098.2352 deg RA of node: 070.6494 deg Eccentricity: 0.0012482 Arg of perigee: 072.7625 deg Mean anomaly: 287.4961 deg Mean motion: 14.74924567 rev/day Decay rate: 5.318e-05 rev/day^2 Epoch rev: 2640 Checksum: 313
Satellite: DAURIA DX 1 Catalog number: 40071 Epoch time: 14360.41045974 Element set: 543 Inclination: 098.3810 deg RA of node: 059.5781 deg Eccentricity: 0.0009777 Arg of perigee: 075.2272 deg Mean anomaly: 285.0025 deg Mean motion: 14.79957819 rev/day Decay rate: 2.543e-05 rev/day^2 Epoch rev: 2523 Checksum: 308
Satellite: UKUBE-1 Catalog number: 40074 Epoch time: 14360.42752197 Element set: 544 Inclination: 098.3825 deg RA of node: 059.9009 deg Eccentricity: 0.0005891 Arg of perigee: 083.5280 deg Mean anomaly: 276.6597 deg Mean motion: 14.81286148 rev/day Decay rate: 5.250e-05 rev/day^2 Epoch rev: 2525 Checksum: 316
Satellite: CHASQUI-1 Catalog number: 40117 Epoch time: 14360.44561047 Element set: 392 Inclination: 051.6334 deg RA of node: 215.3784 deg Eccentricity: 0.0008052 Arg of perigee: 190.0819 deg Mean anomaly: 233.2202 deg Mean motion: 15.87111029 rev/day Decay rate: 4.96606e-03 rev/day^2 Epoch rev: 2027 Checksum: 266
Satellite: HODOYOSHI-1 Catalog number: 40299 Epoch time: 14360.42941122 Element set: 157 Inclination: 097.4723 deg RA of node: 079.2005 deg Eccentricity: 0.0014170 Arg of perigee: 020.9327 deg Mean anomaly: 040.6536 deg Mean motion: 15.17632649 rev/day Decay rate: 8.859e-05 rev/day^2 Epoch rev: 759 Checksum: 296
Satellite: CHUBUSAT-1 Catalog number: 40300 Epoch time: 14360.49838317 Element set: 159 Inclination: 097.4704 deg RA of node: 079.0937 deg Eccentricity: 0.0023776 Arg of perigee: 017.5392 deg Mean anomaly: 039.3079 deg Mean motion: 15.15576301 rev/day Decay rate: 1.0364e-04 rev/day^2 Epoch rev: 760 Checksum: 298
Satellite: QSAT-EOS Catalog number: 40301 Epoch time: 14360.44789470 Element set: 173 Inclination: 097.4678 deg RA of node: 078.8391 deg Eccentricity: 0.0035276 Arg of perigee: 015.6551 deg Mean anomaly: 040.6506 deg Mean motion: 15.13375298 rev/day Decay rate: 1.7654e-04 rev/day^2 Epoch rev: 758 Checksum: 315
Satellite: TSUBAME Catalog number: 40302 Epoch time: 14360.40609373 Element set: 166 Inclination: 097.4643 deg RA of node: 078.6001 deg Eccentricity: 0.0045598 Arg of perigee: 016.1209 deg Mean anomaly: 107.3581 deg Mean motion: 15.10818480 rev/day Decay rate: 1.1543e-04 rev/day^2 Epoch rev: 755 Checksum: 272
/EX
participants (1)
-
Ray Hoad